Weather in Bakhanay

Russia / Sakha (Yakutia) Republic     66°01′00″N   123°39′17″E
В апреле 2022 года жителям России запретили посещать сайт meteo.paraplan.net по решению Генеральной прокуратуры. Аудитория сайта уменьшилась в 10 раз. Владельцы сайта не видят смысла в поддержке погодного сервера в таких условиях. Сайт будет закрыт в октябре.
temp.,
°C
wind,
m/s
gust,
m/s
humid.,
%
clouds,
%
prec.,
mm/h
press.,
hPa
HPBL,
m
4 october, tue
tue400:00−3nw489395 0.2 1022460
03:00−4nw489299 0.3 1022410
06:00−4nw4886100 0.1 1022469
09:00−3nnw4780100 0.1 1022745
12:00−1nnw5771100 0.1 1022909
15:00−1nnw4770100 0.1 10221009
18:00−2nw4774100 0.0 1021736
21:00−2nw3680100 0.0 1020485
5 october, wed
wed500:00−3nw3582100 0.0 1019413
03:00−3nw2482100 0.0 1017308
06:00−4wnw2384100 0.0 1015102
09:00−4w2276100 0.0 1014191
12:00−2sw1262100 0.0 1012513
15:00−1ssw126097 0.0 1010689
18:00−2ssw1170100 0.0 100949
21:00−3nne0174100 0.0 100738
6 october, thu
thu600:00−3e1177100 0.0 100744
03:00−4ne2383100 0.0 100687
06:00−4n3681100 0.0 1007389
09:00−3nnw4976100 0.0 1008594
12:00−2nnw6107179 0.0 1008762
15:00−2nnw61071100 0.0 1010917
18:00−3nnw6117298 0.1 10111003
21:00−4nnw61274100 0.1 1012875
7 october, fri
fri700:00−5nnw61275100 0.0 1014815
03:00−6nnw6127670 0.0 1015767
06:00−7nnw5118573 0.0 1017633
09:00−7nw598390 0.0 1018492
12:00−5nw4770100 0.0 1018559
15:00−4wnw466592 0.0 1019696
18:00−6w367872 0.0 1019199
21:00−6w3681100 0.0 1019249
8 october, sat
sat800:00−6wsw259078 0.0 1018168
03:00−6wsw368983 0.0 1018294
06:00−6sw379386 0.2 1017317
09:00−5sw379093 0.6 1016340
12:00−4sw4788100 0.6 1015469
15:00−3wsw4993100 1.9 1015656
18:00−3wnw4996100 1.8 1015680
21:00−3nw479586 2.9 1016539